Unalakleet, AK

3:27 AM AKDT on March 24, 2017 (GMT -0800)
Unalakleet

Weather History for PAUN - February, 2013

Change the Weather History Date:

Friday, February 1, 2013

  Actual Average Record
Temperature  
Mean Temperature 11 °F -  
Max Temperature 19 °F 5 °F 39 °F (2007)
Min Temperature 3 °F -10 °F -47 °F (1999)
Degree Days  
Heating Degree Days 54    
Moisture  
Dew Point 10 °F    
Average Humidity 83    
Maximum Humidity 100    
Minimum Humidity 63    
Precipitation  
Precipitation 0.00 in - - ()
Sea Level Pressure  
Sea Level Pressure 29.98 in    
Wind  
Wind Speed 10 mph (East)    
Max Wind Speed 31 mph    
Max Gust Speed 37 mph    
Visibility 9 miles    
Events      
Averages and records for this station are not official NWS values.
T = Trace of Precipitation, MM = Missing Value Source: NWS Daily Summary

Daily Weather History Graph

Daily Weather History Graph

Search for Another Location

Airport or City:

Trip Planner

Search our weather history database for the weather conditions in past years. The results will help you decide how hot, cold, wet, or windy it might be!

Date:

Astronomy

Feb. 01, 2013 Rise Set
Actual Time 10:19 AM AKST 5:34 PM AKST
Civil Twilight 9:24 AM AKST 6:30 PM AKST
Nautical Twilight 8:25 AM AKST 7:29 PM AKST
Astronomical Twilight 7:30 AM AKST 8:24 PM AKST
Moon 1:03 AM AKST (2/1) 10:36 AM AKST (2/1)
Length of Visible Light 9h 06m
Length of Day
7h 14m
Waning Gibbous, 69% of the Moon is Illuminated
Feb 1
Waning Gibbous
Feb 3
Last Quarter
Feb 9
New
Feb 17
First Quarter
Feb 25
Full

Hourly Weather History & Observations

Time (AKST) Temp. Windchill Dew Point Humidity Pressure Visibility Wind Dir Wind Speed Gust Speed Precip Events Conditions
12:16 AM 17.6 °F 9.3 °F 12.2 °F 79% 30.08 in 10.0 mi SE 5.8 mph - N/A   Overcast
12:36 AM 17.6 °F 9.3 °F 12.2 °F 79% 30.09 in 10.0 mi SE 5.8 mph - N/A   Overcast
12:56 AM 17.6 °F 10.7 °F 15.8 °F 93% 30.09 in 10.0 mi ESE 4.6 mph - N/A   Overcast
1:16 AM 17.6 °F 10.7 °F 15.8 °F 93% 30.09 in 10.0 mi East 4.6 mph - N/A   Overcast
1:36 AM 17.6 °F 12.3 °F 14.0 °F 86% 30.10 in 10.0 mi South 3.5 mph - N/A   Overcast
1:56 AM 17.6 °F 12.3 °F 14.0 °F 86% 30.10 in 10.0 mi SSE 3.5 mph - N/A   Overcast
2:16 AM 19.4 °F 14.3 °F 15.8 °F 86% 30.11 in 10.0 mi East 3.5 mph - N/A   Overcast
2:36 AM 19.4 °F 11.5 °F 15.8 °F 86% 30.11 in 10.0 mi ESE 5.8 mph - N/A   Overcast
2:56 AM 17.6 °F 7.3 °F 14.0 °F 86% 30.10 in 10.0 mi SE 8.1 mph - N/A   Overcast
3:16 AM 15.8 °F 3.4 °F 15.8 °F 100% 30.09 in 10.0 mi ESE 10.4 mph - N/A   Overcast
3:36 AM 14.0 °F 1.2 °F 10.4 °F 86% 30.09 in 10.0 mi ESE 10.4 mph - N/A   Overcast
3:56 AM 15.8 °F 3.4 °F 12.2 °F 86% 30.10 in 10.0 mi East 10.4 mph - N/A   Overcast
4:16 AM 15.8 °F 4.2 °F 14.0 °F 93% 30.10 in 10.0 mi East 9.2 mph - N/A   Overcast
4:36 AM 17.6 °F 5.0 °F 15.8 °F 93% 30.09 in 10.0 mi East 11.5 mph - N/A   Overcast
4:56 AM 17.6 °F 4.3 °F 15.8 °F 93% 30.09 in 10.0 mi ENE 12.7 mph - N/A   Overcast
5:16 AM 15.8 °F 1.4 °F 15.8 °F 100% 30.08 in 10.0 mi East 13.8 mph - N/A   Overcast
5:36 AM 15.8 °F 3.4 °F 12.2 °F 86% 30.08 in 10.0 mi East 10.4 mph - N/A   Overcast
5:56 AM 15.8 °F 5.1 °F 12.2 °F 86% 30.08 in 10.0 mi East 8.1 mph - N/A   Overcast
6:16 AM 15.8 °F 2.1 °F 12.2 °F 86% 30.08 in 2.5 mi East 12.7 mph - N/A   Overcast
6:36 AM 15.8 °F 4.2 °F 12.2 °F 86% 30.09 in 4.0 mi ENE 9.2 mph - N/A   Overcast
6:56 AM 14.0 °F 2.0 °F 12.2 °F 93% 30.09 in 3.0 mi ENE 9.2 mph - N/A   Overcast
7:16 AM 14.0 °F 3.9 °F 12.2 °F 93% 30.09 in 3.0 mi ENE 6.9 mph - N/A   Overcast
7:36 AM 14.0 °F 5.1 °F 12.2 °F 93% 30.09 in 1.5 mi ENE 5.8 mph - N/A   Overcast
7:56 AM 14.0 °F 8.2 °F 12.2 °F 93% 30.08 in 1.2 mi ENE 3.5 mph - N/A   Overcast
8:16 AM 12.2 °F 0.7 °F 12.2 °F 100% 30.08 in 2.5 mi ENE 8.1 mph - N/A   Overcast
8:36 AM 12.2 °F 1.7 °F 10.4 °F 92% 30.09 in 1.8 mi ENE 6.9 mph - N/A   Overcast
8:56 AM 12.2 °F 0.7 °F 10.4 °F 92% 30.08 in 3.0 mi ENE 8.1 mph - N/A   Overcast
9:16 AM 12.2 °F 2.9 °F 10.4 °F 92% 30.08 in 10.0 mi ENE 5.8 mph - N/A   Overcast
9:36 AM 10.4 °F -1.5 °F 8.6 °F 92% 30.07 in 10.0 mi East 8.1 mph - N/A   Overcast
9:56 AM 10.4 °F -2.4 °F 8.6 °F 92% 30.07 in 10.0 mi East 9.2 mph - N/A   Partly Cloudy
10:16 AM 10.4 °F 0.8 °F 6.8 °F 85% 30.07 in 10.0 mi East 5.8 mph - N/A   Clear
10:36 AM 10.4 °F -0.4 °F 6.8 °F 85% 30.06 in 10.0 mi East 6.9 mph - N/A   Clear
10:56 AM 8.6 °F -4.7 °F 5.0 °F 85% 30.06 in 10.0 mi ESE 9.2 mph - N/A   Clear
11:16 AM 8.6 °F -3.7 °F 5.0 °F 85% 30.05 in 10.0 mi ESE 8.1 mph - N/A   Clear
11:36 AM 6.8 °F -2.0 °F 3.2 °F 85% 30.04 in 10.0 mi ESE 4.6 mph - N/A   Clear
11:56 AM 5.0 °F -10.8 °F 1.4 °F 85% 30.03 in 10.0 mi ESE 11.5 mph - N/A   Clear
12:16 PM 6.8 °F -6.9 °F 3.2 °F 85% 30.03 in 10.0 mi ESE 9.2 mph - N/A   Clear
12:36 PM 5.0 °F -9.1 °F 1.4 °F 85% 30.02 in 10.0 mi ESE 9.2 mph - N/A   Clear
12:56 PM 3.2 °F -9.1 °F -0.4 °F 85% 30.02 in 10.0 mi SE 6.9 mph - N/A   Clear
1:16 PM 3.2 °F -9.1 °F 1.4 °F 92% 30.01 in 10.0 mi SE 6.9 mph - N/A   Clear
1:36 PM 5.0 °F -9.1 °F 1.4 °F 85% 30.00 in 10.0 mi SE 9.2 mph - N/A   Clear
1:56 PM 10.4 °F -4.8 °F 10.4 °F 100% 29.99 in 10.0 mi East 12.7 mph - N/A   Clear
2:16 PM 14.0 °F -3.4 °F 10.4 °F 86% 29.98 in 10.0 mi ENE 19.6 mph - N/A   Clear
2:36 PM 14.0 °F -4.3 °F 6.8 °F 73% 29.96 in 10.0 mi ENE 21.9 mph - N/A   Clear
2:56 PM 14.0 °F -1.4 °F 8.6 °F 79% 29.98 in 10.0 mi ENE 15.0 mph - N/A   Clear
3:16 PM 14.0 °F -3.0 °F 10.4 °F 86% 29.97 in 10.0 mi ENE 18.4 mph - N/A   Clear
3:36 PM 15.8 °F -0.2 °F 10.4 °F 79% 29.96 in 10.0 mi ENE 17.3 mph - N/A   Clear
3:56 PM 15.8 °F 1.4 °F 10.4 °F 79% 29.96 in 10.0 mi NE 13.8 mph - N/A   Clear
4:16 PM 15.8 °F 0.3 °F 10.4 °F 79% 29.95 in 10.0 mi ENE 16.1 mph 23.0 mph N/A   Clear
4:36 PM 15.8 °F 2.7 °F 10.4 °F 79% 29.94 in 10.0 mi NE 11.5 mph - N/A   Clear
4:56 PM 15.8 °F 2.1 °F 10.4 °F 79% 29.93 in 10.0 mi NE 12.7 mph 20.7 mph N/A   Clear
5:16 PM 15.8 °F 0.3 °F 10.4 °F 79% 29.92 in 10.0 mi NE 16.1 mph - N/A   Clear
5:36 PM 15.8 °F -1.1 °F 8.6 °F 73% 29.91 in 10.0 mi ENE 19.6 mph - N/A   Clear
5:56 PM 15.8 °F -3.1 °F 8.6 °F 73% 29.90 in 10.0 mi East 25.3 mph 28.8 mph N/A   Clear
6:16 PM 15.8 °F 2.7 °F 8.6 °F 73% 29.90 in 10.0 mi ENE 11.5 mph - N/A   Clear
6:36 PM 15.8 °F 5.1 °F 8.6 °F 73% 29.89 in 10.0 mi ENE 8.1 mph - N/A   Clear
6:56 PM 15.8 °F 1.4 °F 10.4 °F 79% 29.89 in 10.0 mi ENE 13.8 mph 19.6 mph N/A   Clear
7:16 PM 15.8 °F 1.4 °F 8.6 °F 73% 29.86 in 10.0 mi NE 13.8 mph - N/A   Clear
7:36 PM 15.8 °F -0.6 °F 10.4 °F 79% 29.84 in 10.0 mi NE 18.4 mph 21.9 mph N/A   Clear
7:56 PM 15.8 °F -1.5 °F 8.6 °F 73% 29.82 in 10.0 mi ENE 20.7 mph - N/A   Clear
8:16 PM 17.6 °F 1.3 °F 8.6 °F 68% 29.80 in 10.0 mi ENE 19.6 mph - N/A   Scattered Clouds
8:36 PM 17.6 °F 5.7 °F 10.4 °F 73% 29.80 in 10.0 mi NE 10.4 mph - N/A   Scattered Clouds
8:56 PM 17.6 °F 7.3 °F 8.6 °F 68% 29.79 in 10.0 mi ENE 8.1 mph - N/A   Partly Cloudy
9:16 PM 17.6 °F 6.4 °F 8.6 °F 68% 29.78 in 10.0 mi ENE 9.2 mph - N/A   Partly Cloudy
9:36 PM 19.4 °F 4.1 °F 10.4 °F 68% 29.76 in 10.0 mi ENE 18.4 mph 27.6 mph N/A   Clear
9:56 PM 19.4 °F 0.2 °F 10.4 °F 68% 29.74 in 10.0 mi East 31.1 mph 36.8 mph N/A   Clear
10:16 PM 19.4 °F 2.1 °F 10.4 °F 68% 29.74 in 10.0 mi East 24.2 mph 33.4 mph N/A   Clear
10:36 PM 19.4 °F 2.8 °F 10.4 °F 68% 29.73 in 10.0 mi East 21.9 mph 31.1 mph N/A   Partly Cloudy
10:56 PM 19.4 °F 1.8 °F 8.6 °F 63% 29.71 in 10.0 mi East 25.3 mph 29.9 mph N/A   Partly Cloudy
11:16 PM 19.4 °F 1.4 °F 8.6 °F 63% 29.71 in 10.0 mi East 26.5 mph 33.4 mph N/A   Clear
11:36 PM 19.4 °F 1.4 °F 8.6 °F 63% 29.69 in 10.0 mi East 26.5 mph 32.2 mph N/A   Mostly Cloudy
11:56 PM 17.6 °F -1.6 °F 10.4 °F 73% 29.68 in 10.0 mi East 28.8 mph 35.7 mph N/A   Overcast